When you browse on this site, cookies collect data to enhance your experience and personalize the content and advertising you see.
Visit our Privacy Policy to learn more. By continuing to use the site, you agree to this use of cookies and data.
  • En España
  • Lista de países
  • Para 7 días
  • Temperatura del agua
  • Mapa Satelital
  • El tiempo en el mapa
  • Informadores
  • user-avatar
    Iniciar sesión

    Tiempo cada hora Melbourne

    Hoy, 18 Junio, Martes

    Tiempo Temperatura Precipitaciones Viento Presión Humedad
    00:00 +9°C° 0 mm 5 mps 763 mmHg 74%
    01:00 +9°C° 0 mm 5 mps 762 mmHg 73%
    02:00 +9°C° 0 mm 5 mps 762 mmHg 72%
    03:00 +10°C° 0 mm 6 mps 762 mmHg 71%
    04:00 +10°C° 0 mm 6 mps 761 mmHg 70%
    05:00 +9°C° 0 mm 6 mps 761 mmHg 71%
    06:00 +9°C° 0 mm 6 mps 761 mmHg 73%
    07:00 +9°C° 0 mm 6 mps 761 mmHg 74%
    08:00 +9°C° 0.2 mm 5 mps 761 mmHg 75%
    09:00 +9°C° 0.2 mm 5 mps 761 mmHg 76%
    10:00 +9°C° 0.2 mm 5 mps 761 mmHg 77%
    11:00 +10°C° 0.5 mm 5 mps 762 mmHg 75%
    12:00 +12°C° 0.5 mm 5 mps 762 mmHg 72%
    13:00 +12°C° 0.5 mm 5 mps 762 mmHg 69%
    14:00 +12°C° 0.5 mm 5 mps 762 mmHg 70%
    15:00 +10°C° 0.5 mm 5 mps 762 mmHg 71%
    16:00 +10°C° 0.5 mm 5 mps 762 mmHg 72%
    17:00 +10°C° 0.1 mm 4 mps 763 mmHg 74%
    18:00 +8°C° 0.1 mm 4 mps 764 mmHg 75%
    19:00 +7°C° 0.1 mm 4 mps 764 mmHg 77%
    20:00 +7°C° 0 mm 4 mps 764 mmHg 78%
    21:00 +7°C° 0 mm 3 mps 765 mmHg 79%
    22:00 +7°C° 0 mm 3 mps 765 mmHg 80%
    23:00 +7°C° 0 mm 3 mps 765 mmHg 81%

    Mañana, 19 Junio, Miércoles

    Tiempo Temperatura Precipitaciones Viento Presión Humedad
    00:00 +7°C° 0 mm 3 mps 765 mmHg 83%
    01:00 +5°C° 0 mm 3 mps 766 mmHg 84%
    02:00 +5°C° 0 mm 3 mps 766 mmHg 84%
    03:00 +5°C° 0 mm 3 mps 766 mmHg 83%
    04:00 +5°C° 0 mm 3 mps 766 mmHg 83%
    05:00 +5°C° 0 mm 3 mps 766 mmHg 82%
    06:00 +5°C° 0 mm 3 mps 766 mmHg 82%
    07:00 +7°C° 0 mm 3 mps 767 mmHg 82%
    08:00 +7°C° 0 mm 3 mps 767 mmHg 80%
    09:00 +8°C° 0 mm 3 mps 767 mmHg 77%
    10:00 +8°C° 0 mm 3 mps 768 mmHg 75%
    11:00 +9°C° 0.1 mm 3 mps 767 mmHg 73%
    12:00 +9°C° 0.1 mm 2 mps 767 mmHg 72%
    13:00 +10°C° 0.1 mm 2 mps 767 mmHg 71%
    14:00 +10°C° 0.1 mm 2 mps 767 mmHg 71%
    15:00 +10°C° 0.1 mm 2 mps 767 mmHg 72%
    16:00 +10°C° 0.1 mm 2 mps 767 mmHg 72%
    17:00 +9°C° 0 mm 2 mps 767 mmHg 75%
    18:00 +8°C° 0 mm 2 mps 767 mmHg 78%
    19:00 +8°C° 0 mm 1 mps 768 mmHg 81%
    20:00 +8°C° 0 mm 1 mps 768 mmHg 82%
    21:00 +8°C° 0 mm 1 mps 768 mmHg 83%
    22:00 +6°C° 0 mm 2 mps 768 mmHg 84%
    23:00 +6°C° 0.1 mm 2 mps 767 mmHg 85%

    Pasado mañana, 20 Junio, Jueves

    Tiempo Temperatura Precipitaciones Viento Presión Humedad
    00:00 +6°C° 0.1 mm 2 mps 767 mmHg 85%
    01:00 +6°C° 0.1 mm 2 mps 767 mmHg 86%
    02:00 +6°C° 0.2 mm 2 mps 767 mmHg 86%
    03:00 +6°C° 0.2 mm 2 mps 767 mmHg 87%
    04:00 +7°C° 0.2 mm 2 mps 767 mmHg 87%
    05:00 +6°C° 0.1 mm 2 mps 767 mmHg 88%
    06:00 +6°C° 0.1 mm 2 mps 767 mmHg 88%
    07:00 +6°C° 0.1 mm 2 mps 767 mmHg 89%
    08:00 +7°C° 0 mm 2 mps 767 mmHg 86%
    09:00 +7°C° 0 mm 2 mps 767 mmHg 83%
    10:00 +8°C° 0 mm 2 mps 767 mmHg 79%
    11:00 +9°C° 0.2 mm 2 mps 767 mmHg 78%
    12:00 +10°C° 0.2 mm 1 mps 766 mmHg 76%
    13:00 +10°C° 0.2 mm 1 mps 766 mmHg 74%
    14:00 +10°C° 0.2 mm 2 mps 766 mmHg 73%
    15:00 +10°C° 0.2 mm 2 mps 766 mmHg 72%
    16:00 +10°C° 0.2 mm 2 mps 766 mmHg 71%
    17:00 +9°C° 0.3 mm 2 mps 766 mmHg 74%
    18:00 +8°C° 0.3 mm 2 mps 766 mmHg 78%
    19:00 +8°C° 0.3 mm 2 mps 767 mmHg 81%
    20:00 +7°C° 0.2 mm 2 mps 767 mmHg 82%
    21:00 +7°C° 0.2 mm 2 mps 767 mmHg 83%
    22:00 +7°C° 0.2 mm 2 mps 768 mmHg 84%
    23:00 +7°C° 0 mm 2 mps 768 mmHg 84%

    21 Junio, Viernes

    Tiempo Temperatura Precipitaciones Viento Presión Humedad
    00:00 +7°C° 0 mm 2 mps 768 mmHg 84%
    01:00 +7°C° 0 mm 2 mps 768 mmHg 84%
    02:00 +7°C° 0.2 mm 2 mps 768 mmHg 84%
    03:00 +7°C° 0.2 mm 2 mps 767 mmHg 85%
    04:00 +7°C° 0.2 mm 2 mps 767 mmHg 86%
    05:00 +7°C° 0.1 mm 2 mps 768 mmHg 86%
    06:00 +7°C° 0.1 mm 2 mps 768 mmHg 86%
    07:00 +6°C° 0.1 mm 2 mps 768 mmHg 86%
    08:00 +7°C° 0 mm 2 mps 769 mmHg 83%
    09:00 +8°C° 0 mm 2 mps 769 mmHg 81%
    10:00 +8°C° 0 mm 2 mps 769 mmHg 78%
    11:00 +9°C° 0.1 mm 2 mps 769 mmHg 73%
    12:00 +10°C° 0.1 mm 3 mps 769 mmHg 68%
    13:00 +11°C° 0.1 mm 3 mps 769 mmHg 64%
    14:00 +11°C° 0.1 mm 3 mps 769 mmHg 65%
    15:00 +11°C° 0.1 mm 3 mps 769 mmHg 66%
    16:00 +11°C° 0.1 mm 3 mps 769 mmHg 67%
    17:00 +10°C° 0.1 mm 2 mps 769 mmHg 71%
    18:00 +9°C° 0.1 mm 2 mps 770 mmHg 75%
    19:00 +8°C° 0.1 mm 2 mps 770 mmHg 80%
    20:00 +7°C° 0 mm 2 mps 770 mmHg 81%
    21:00 +7°C° 0 mm 2 mps 771 mmHg 82%
    22:00 +7°C° 0 mm 2 mps 771 mmHg 83%
    23:00 +7°C° 0 mm 1 mps 771 mmHg 84%

    22 Junio, Sábado

    Tiempo Temperatura Precipitaciones Viento Presión Humedad
    00:00 +7°C° 0 mm 1 mps 771 mmHg 85%
    01:00 +7°C° 0 mm 1 mps 771 mmHg 85%
    02:00 +7°C° 0 mm 1 mps 771 mmHg 86%
    03:00 +6°C° 0 mm 1 mps 771 mmHg 87%
    04:00 +6°C° 0 mm 1 mps 771 mmHg 88%
    05:00 +6°C° 0 mm 1 mps 771 mmHg 88%
    06:00 +6°C° 0 mm 1 mps 771 mmHg 88%
    07:00 +5°C° 0 mm 1 mps 772 mmHg 88%
    08:00 +6°C° 0 mm 1 mps 772 mmHg 84%
    09:00 +8°C° 0 mm 1 mps 772 mmHg 79%
    10:00 +9°C° 0 mm 1 mps 772 mmHg 75%
    11:00 +10°C° 0 mm 1 mps 772 mmHg 69%
    12:00 +10°C° 0 mm 2 mps 771 mmHg 64%
    13:00 +11°C° 0 mm 3 mps 771 mmHg 58%
    14:00 +11°C° 0 mm 3 mps 771 mmHg 59%
    15:00 +11°C° 0 mm 3 mps 771 mmHg 60%
    16:00 +11°C° 0 mm 3 mps 771 mmHg 61%
    17:00 +10°C° 0 mm 3 mps 772 mmHg 66%
    18:00 +9°C° 0 mm 3 mps 772 mmHg 72%
    19:00 +8°C° 0 mm 3 mps 773 mmHg 78%
    20:00 +7°C° 0 mm 2 mps 773 mmHg 79%
    21:00 +7°C° 0 mm 2 mps 773 mmHg 80%
    22:00 +6°C° 0 mm 2 mps 773 mmHg 82%
    23:00 +6°C° 0 mm 2 mps 773 mmHg 82%

    23 Junio, Domingo

    Tiempo Temperatura Precipitaciones Viento Presión Humedad
    00:00 +5°C° 0 mm 2 mps 773 mmHg 83%
    01:00 +5°C° 0 mm 2 mps 773 mmHg 84%
    02:00 +5°C° 0 mm 2 mps 773 mmHg 85%
    03:00 +4°C° 0 mm 2 mps 773 mmHg 85%
    04:00 +4°C° 0 mm 2 mps 773 mmHg 86%
    05:00 +4°C° 0 mm 2 mps 773 mmHg 86%
    06:00 +4°C° 0 mm 2 mps 774 mmHg 87%
    07:00 +3°C° 0 mm 2 mps 774 mmHg 87%
    08:00 +5°C° 0 mm 2 mps 774 mmHg 82%
    09:00 +7°C° 0 mm 1 mps 774 mmHg 77%
    10:00 +8°C° 0 mm 1 mps 774 mmHg 72%
    11:00 +8°C° 0 mm 2 mps 774 mmHg 67%
    12:00 +10°C° 0 mm 2 mps 774 mmHg 63%
    13:00 +12°C° 0 mm 2 mps 773 mmHg 58%
    14:00 +12°C° 0 mm 3 mps 773 mmHg 59%
    15:00 +12°C° 0 mm 3 mps 773 mmHg 60%
    16:00 +12°C° 0 mm 3 mps 773 mmHg 62%
    17:00 +11°C° 0 mm 3 mps 773 mmHg 67%
    18:00 +9°C° 0 mm 3 mps 773 mmHg 73%
    19:00 +8°C° 0 mm 3 mps 774 mmHg 79%
    20:00 +8°C° 0 mm 3 mps 774 mmHg 81%
    21:00 +7°C° 0 mm 3 mps 774 mmHg 84%
    22:00 +7°C° 0 mm 3 mps 774 mmHg 86%
    23:00 +5°C° 0 mm 3 mps 774 mmHg 86%
    Mostrar más